Weather in Sangju

South Korea     36°25′07″N   128°09′32″E
temp.,
°C
wind,
m/s
gust,
m/s
humid.,
%
clouds,
%
prec.,
mm/h
press.,
hPa
HPBL,
m
18 april, sun
sun1800:00+5w410572 0.0 1015413
03:00+5w410725 0.0 1014452
06:00+4w368145 0.0 1015147
09:00+9wnw58578 0.0 10161318
12:00+13wnw57375 0.0 10151928
15:00+15wnw68332 0.0 10142017
18:00+13w57461 0.0 1015701
21:00+8sw23620 0.0 101743
19 april, mon
mon1900:00+5wsw22700 0.0 101838
03:00+4wsw22750 0.0 101822
06:00+3wsw22780 0.0 101920
09:00+11wsw24470 0.0 1018554
12:00+18wnw710280 0.0 10171494
15:00+21wnw7927100 0.0 10151893
18:00+17wnw610420 0.0 1016624
21:00+11wsw22620 0.0 101821
20 april, tue
tue2000:00+9wsw227018 0.0 101921
03:00+7wsw22760 0.0 102016
06:00+6wsw22790 0.0 102111
09:00+14wsw23510 0.0 1022454
12:00+22wnw24280 0.0 10211329
15:00+24wnw22260 0.0 10191761
18:00+22wsw113892 0.0 101911
21:00+14ene2261100 0.0 102229
21 april, wed
wed2100:00+12ene1176100 0.0 102411
03:00+10e0082100 0.0 102410
06:00+9ne118730 0.0 102410
09:00+16ese116057 0.0 1025363
12:00+22se223895 0.0 1023860
15:00+25s232635 0.0 10201574
18:00+23sse2237100 0.0 101915
21:00+18sw1141100 0.0 102012
22 april, thu
thu2200:00+15wsw1156100 0.0 102111
03:00+15w1158100 0.0 102010
06:00+14sse0159100 0.0 102010
09:00+17sse0151100 0.0 1020293
12:00+23ese1232100 0.0 1018803
15:00+24s3422100 0.0 10162239
18:00+21w1138100 0.0 101717
21:00+18sw1142100 0.0 101811